owner,sensor,date,latitude,longitude,vertical_datum,direction_of_sea_water_velocity,sea_water_speed,upward_sea_water_velocity,qcFlag 
COMPS,ioos:station:USF.COMPS:C12:1,2013-05-01T00:00:00Z,27.4980,-83.7220,4.0,26.565051177078,3.8013155617496,-99999.0,'1111122,1111122,1199999999' 
COMPS,ioos:station:USF.COMPS:C12:1,2013-05-01T16:00:00Z,27.4980,-83.7220,4.0,309.05313694603,6.8249542123006,-99999.0,'1111122,1111122,1199999999' 
COMPS,ioos:station:USF.COMPS:C12:1,2013-05-01T17:00:00Z,27.4980,-83.7220,4.0,317.33730585912,6.9354163537599,-99999.0,'1111122,1111122,1199999999' 
COMPS,ioos:station:USF.COMPS:C12:1,2013-05-01T18:00:00Z,27.4980,-83.7220,4.0,359.15747573926,6.8007352543677,-99999.0,'1111122,1111122,1199999999' 
COMPS,ioos:station:USF.COMPS:C12:1,2013-05-01T19:00:00Z,27.4980,-83.7220,4.0,333.74134044519,8.363013810822,-99999.0,'1111122,1111122,1199999999' 
COMPS,ioos:station:USF.COMPS:C12:1,2013-05-01T20:00:00Z,27.4980,-83.7220,4.0,41.347777219694,3.3301651610693,-99999.0,'1111122,1111122,1199999999' 
COMPS,ioos:station:USF.COMPS:C12:1,2013-05-01T21:00:00Z,27.4980,-83.7220,4.0,50.630682757635,5.0447993022518,-99999.0,'1111122,1111122,1199999999' 
COMPS,ioos:station:USF.COMPS:C12:1,2013-05-01T22:00:00Z,27.4980,-83.7220,4.0,5.9061411137705,2.9154759474227,-99999.0,'1111122,1111122,1199999999' 
COMPS,ioos:station:USF.COMPS:C12:1,2013-05-01T23:00:00Z,27.4980,-83.7220,4.0,7.4314079711725,6.9584481028459,-99999.0,'1111122,1111122,1199999999' 
COMPS,ioos:station:USF.COMPS:C12:1,2013-05-02T00:00:00Z,27.4980,-83.7220,4.0,283.57043438516,2.9832867780353,-99999.0,'1111122,1111122,1199999999' 
COMPS,ioos:station:USF.COMPS:C12:1,2013-05-02T01:00:00Z,27.4980,-83.7220,4.0,39.610688240027,3.7643060449437,-99999.0,'1111122,1111122,1199999999' 
COMPS,ioos:station:USF.COMPS:C12:1,2013-05-02T02:00:00Z,27.4980,-83.7220,4.0,67.999301649459,10.677546534668,-99999.0,'1111122,1111122,1199999999' 
COMPS,ioos:station:USF.COMPS:C12:1,2013-05-02T03:00:00Z,27.4980,-83.7220,4.0,75.529705899934,12.806248474866,-99999.0,'1111122,1111122,1199999999' 
COMPS,ioos:station:USF.COMPS:C12:1,2013-05-02T04:00:00Z,27.4980,-83.7220,4.0,73.442928624363,15.440207252495,-99999.0,'1111122,1111122,1199999999' 
COMPS,ioos:station:USF.COMPS:C12:1,2013-05-02T05:00:00Z,27.4980,-83.7220,4.0,98.555558243413,11.427160627207,-99999.0,'1111122,1111122,1199999999' 
COMPS,ioos:station:USF.COMPS:C12:1,2013-05-02T06:00:00Z,27.4980,-83.7220,4.0,94.460848258517,14.142842712835,-99999.0,'1111122,1111122,1199999999' 
COMPS,ioos:station:USF.COMPS:C12:1,2013-05-02T07:00:00Z,27.4980,-83.7220,4.0,120.96375653207,10.495713410722,-99999.0,'1111122,1111122,1199999999' 
COMPS,ioos:station:USF.COMPS:C12:1,2013-05-02T08:00:00Z,27.4980,-83.7220,4.0,126.27661935832,13.520724832641,-99999.0,'1111122,1111122,1199999999' 
COMPS,ioos:station:USF.COMPS:C12:1,2013-05-02T09:00:00Z,27.4980,-83.7220,4.0,123.83049807692,11.315917991926,-99999.0,'1111122,1111122,1199999999' 
COMPS,ioos:station:USF.COMPS:C12:1,2013-05-02T10:00:00Z,27.4980,-83.7220,4.0,185.04245106917,3.4132096331752,-99999.0,'1111122,1111122,1199999999' 
COMPS,ioos:station:USF.COMPS:C12:1,2013-05-02T11:00:00Z,27.4980,-83.7220,4.0,241.54298340456,14.900335566691,-99999.0,'1111122,1111122,1199999999' 
COMPS,ioos:station:USF.COMPS:C12:1,2013-05-02T12:00:00Z,27.4980,-83.7220,4.0,259.65514251852,12.808200498118,-99999.0,'1111122,1111122,1199999999' 
COMPS,ioos:station:USF.COMPS:C12:1,2013-05-02T13:00:00Z,27.4980,-83.7220,4.0,236.30993247402,9.01387818866,-99999.0,'1111122,1111122,1199999999' 
COMPS,ioos:station:USF.COMPS:C12:1,2013-05-02T14:00:00Z,27.4980,-83.7220,4.0,296.02959219151,9.5707888912043,-99999.0,'1111122,1111122,1199999999' 
COMPS,ioos:station:USF.COMPS:C12:1,2013-05-02T15:00:00Z,27.4980,-83.7220,4.0,273.36646066343,3.4058772731853,-99999.0,'1111122,1111122,1199999999' 
COMPS,ioos:station:USF.COMPS:C12:1,2013-05-02T16:00:00Z,27.4980,-83.7220,4.0,37.874983651098,1.1401754250991,-99999.0,'1111122,1111122,1199999999' 
COMPS,ioos:station:USF.COMPS:C12:1,2013-05-02T17:00:00Z,27.4980,-83.7220,4.0,333.82471001824,6.5741919655574,-99999.0,'1111122,1111122,1199999999' 
COMPS,ioos:station:USF.COMPS:C12:1,2013-05-02T18:00:00Z,27.4980,-83.7220,4.0,16.77122381863,7.6243032468548,-99999.0,'1111122,1111122,1199999999' 
COMPS,ioos:station:USF.COMPS:C12:1,2013-05-02T19:00:00Z,27.4980,-83.7220,4.0,94.844000375081,5.921148537235,-99999.0,'1111122,1111122,1199999999' 
COMPS,ioos:station:USF.COMPS:C12:1,2013-05-02T20:00:00Z,27.4980,-83.7220,4.0,249.92847413546,5.5362442142666,-99999.0,'1111122,1111122,1199999999' 
COMPS,ioos:station:USF.COMPS:C12:1,2013-05-02T23:00:00Z,27.4980,-83.7220,4.0,248.74949449287,5.7939623747484,-99999.0,'1111122,1111122,1199999999' 
COMPS,ioos:station:USF.COMPS:C12:1,2013-05-03T02:00:00Z,27.4980,-83.7220,4.0,154.6120937089,13.061393493805,-99999.0,'1111122,1111122,1199999999' 
COMPS,ioos:station:USF.COMPS:C12:1,2013-05-03T04:00:00Z,27.4980,-83.7220,4.0,156.37062226934,6.9856996786292,-99999.0,'1111122,1111122,1199999999' 
COMPS,ioos:station:USF.COMPS:C12:1,2013-05-03T05:00:00Z,27.4980,-83.7220,4.0,149.37000151518,8.8323269867006,-99999.0,'1111122,1111122,1199999999' 
COMPS,ioos:station:USF.COMPS:C12:1,2013-05-03T07:00:00Z,27.4980,-83.7220,4.0,163.17859010996,8.9844309780865,-99999.0,'1111122,1111122,1199999999' 
COMPS,ioos:station:USF.COMPS:C12:1,2013-05-03T08:00:00Z,27.4980,-83.7220,4.0,150.57254359681,4.4777226354476,-99999.0,'1111122,1111122,1199999999' 
COMPS,ioos:station:USF.COMPS:C12:1,2013-05-03T09:00:00Z,27.4980,-83.7220,4.0,166.39945748334,6.3788713735268,-99999.0,'1111122,1111122,1199999999' 
COMPS,ioos:station:USF.COMPS:C12:1,2013-05-03T11:00:00Z,27.4980,-83.7220,4.0,125.21759296819,2.0808652046685,-99999.0,'1111122,1111122,1199999999' 
COMPS,ioos:station:USF.COMPS:C12:1,2013-05-03T12:00:00Z,27.4980,-83.7220,4.0,196.99082329199,3.7643060449437,-99999.0,'1111122,1111122,1199999999' 
COMPS,ioos:station:USF.COMPS:C12:1,2013-05-03T13:00:00Z,27.4980,-83.7220,4.0,144.09027692082,3.5805027579936,-99999.0,'1111122,1111122,1199999999' 
COMPS,ioos:station:USF.COMPS:C12:1,2013-05-03T14:00:00Z,27.4980,-83.7220,4.0,182.86240522611,6.0074953183502,-99999.0,'1111122,1111122,1199999999' 
COMPS,ioos:station:USF.COMPS:C12:1,2013-05-03T15:00:00Z,27.4980,-83.7220,4.0,160.27772223555,5.6302753041037,-99999.0,'1111122,1111122,1199999999' 
COMPS,ioos:station:USF.COMPS:C12:1,2013-05-03T16:00:00Z,27.4980,-83.7220,4.0,251.56505117708,3.1622776601684,-99999.0,'1111122,1111122,1199999999' 
COMPS,ioos:station:USF.COMPS:C12:1,2013-05-03T18:00:00Z,27.4980,-83.7220,4.0,279.09027692082,2.5317977802344,-99999.0,'1111122,1111122,1199999999' 
COMPS,ioos:station:USF.COMPS:C12:1,2013-05-03T19:00:00Z,27.4980,-83.7220,4.0,267.87890360334,5.4037024344425,-99999.0,'1111122,1111122,1199999999' 
COMPS,ioos:station:USF.COMPS:C12:1,2013-05-03T20:00:00Z,27.4980,-83.7220,4.0,283.33924890336,9.9689518004653,-99999.0,'1111122,1111122,1199999999' 
COMPS,ioos:station:USF.COMPS:C12:1,2013-05-04T01:00:00Z,27.4980,-83.7220,4.0,148.60973189581,6.911584478251,-99999.0,'1111122,1111122,1199999999' 
COMPS,ioos:station:USF.COMPS:C12:1,2013-05-04T05:00:00Z,27.4980,-83.7220,4.0,183.98431600237,20.148697228357,-99999.0,'1111122,1111122,1199999999' 
COMPS,ioos:station:USF.COMPS:C12:1,2013-05-04T08:00:00Z,27.4980,-83.7220,4.0,172.92646232504,13.805071531868,-99999.0,'1111122,1111122,1199999999' 
COMPS,ioos:station:USF.COMPS:C12:1,2013-05-04T10:00:00Z,27.4980,-83.7220,4.0,168.50343698241,6.0207972893961,-99999.0,'1111122,1111122,1199999999' 
COMPS,ioos:station:USF.COMPS:C12:1,2013-05-04T11:00:00Z,27.4980,-83.7220,4.0,113.96248897458,3.9395431207184,-99999.0,'1111122,1111122,1199999999' 
COMPS,ioos:station:USF.COMPS:C12:1,2013-05-04T12:00:00Z,27.4980,-83.7220,4.0,158.83874018317,3.3241540277189,-99999.0,'1111122,1111122,1199999999' 
COMPS,ioos:station:USF.COMPS:C12:1,2013-05-04T13:00:00Z,27.4980,-83.7220,4.0,167.73522627211,2.353720459188,-99999.0,'1111122,1111122,1199999999' 
COMPS,ioos:station:USF.COMPS:C12:1,2013-05-04T14:00:00Z,27.4980,-83.7220,4.0,143.84181456019,9.6607453128628,-99999.0,'1111122,1111122,1199999999' 
COMPS,ioos:station:USF.COMPS:C12:1,2013-05-04T15:00:00Z,27.4980,-83.7220,4.0,125.77607771789,8.3815273071201,-99999.0,'1111122,1111122,1199999999' 
COMPS,ioos:station:USF.COMPS:C12:1,2013-05-04T17:00:00Z,27.4980,-83.7220,4.0,133.00543069876,14.221462653328,-99999.0,'1111122,1111122,1199999999' 
COMPS,ioos:station:USF.COMPS:C12:1,2013-05-04T19:00:00Z,27.4980,-83.7220,4.0,91.450216290933,7.9025312400521,-99999.0,'1111122,1111122,1199999999' 
COMPS,ioos:station:USF.COMPS:C12:1,2013-05-05T07:00:00Z,27.4980,-83.7220,4.0,191.35602721831,24.377243486498,-99999.0,'1111122,1111122,1199999999' 
COMPS,ioos:station:USF.COMPS:C12:1,2013-05-05T13:00:00Z,27.4980,-83.7220,4.0,181.93680038622,20.711832367031,-99999.0,'1111122,1111122,1199999999' 
COMPS,ioos:station:USF.COMPS:C12:1,2013-05-05T15:00:00Z,27.4980,-83.7220,4.0,159.07549825508,10.920164833921,-99999.0,'1111122,1111122,1199999999' 
COMPS,ioos:station:USF.COMPS:C12:1,2013-05-05T17:00:00Z,27.4980,-83.7220,4.0,205.08359400619,5.1894122981316,-99999.0,'1111122,1111122,1199999999' 
COMPS,ioos:station:USF.COMPS:C12:1,2013-05-05T21:00:00Z,27.4980,-83.7220,4.0,129.52263127117,5.1855568649857,-99999.0,'1111122,1111122,1199999999' 
COMPS,ioos:station:USF.COMPS:C12:1,2013-05-05T23:00:00Z,27.4980,-83.7220,4.0,166.96664367409,11.085576214162,-99999.0,'1111122,1111122,1199999999' 
COMPS,ioos:station:USF.COMPS:C12:1,2013-05-06T00:00:00Z,27.4980,-83.7220,4.0,146.64175760296,14.366976021418,-99999.0,'1111122,1111122,1199999999' 
COMPS,ioos:station:USF.COMPS:C12:1,2013-05-06T01:00:00Z,27.4980,-83.7220,4.0,161.10175308474,23.464867355261,-99999.0,'1111122,1111122,1199999999' 
COMPS,ioos:station:USF.COMPS:C12:1,2013-05-06T02:00:00Z,27.4980,-83.7220,4.0,156.45655513256,30.542429503889,-99999.0,'1111122,1111122,1199999999' 
COMPS,ioos:station:USF.COMPS:C12:1,2013-05-06T03:00:00Z,27.4980,-83.7220,4.0,154.27438735663,36.630724808554,-99999.0,'1111122,1111122,1199999999' 
COMPS,ioos:station:USF.COMPS:C12:1,2013-05-06T04:00:00Z,27.4980,-83.7220,4.0,151.67796051301,36.465051761927,-99999.0,'1111122,1111122,1199999999' 
COMPS,ioos:station:USF.COMPS:C12:1,2013-05-06T06:00:00Z,27.4980,-83.7220,4.0,172.76307797403,25.402362094892,-99999.0,'1111122,1111122,1199999999' 
COMPS,ioos:station:USF.COMPS:C12:1,2013-05-06T09:00:00Z,27.4980,-83.7220,4.0,167.13082532733,27.387953556263,-99999.0,'1111122,1111122,1199999999' 
COMPS,ioos:station:USF.COMPS:C12:1,2013-05-06T10:00:00Z,27.4980,-83.7220,4.0,158.89194508076,29.156302920638,-99999.0,'1111122,1111122,1199999999' 
COMPS,ioos:station:USF.COMPS:C12:1,2013-05-06T15:00:00Z,27.4980,-83.7220,4.0,108.43494882292,11.067971810589,-99999.0,'1111122,1111122,1199999999' 
COMPS,ioos:station:USF.COMPS:C12:1,2013-05-06T16:00:00Z,27.4980,-83.7220,4.0,68.355564859286,6.7779052811322,-99999.0,'1111122,1111122,1199999999' 
COMPS,ioos:station:USF.COMPS:C12:1,2013-05-06T17:00:00Z,27.4980,-83.7220,4.0,167.36663806472,5.9439044406854,-99999.0,'1111122,1111122,1199999999' 
COMPS,ioos:station:USF.COMPS:C12:1,2013-05-06T18:00:00Z,27.4980,-83.7220,4.0,212.27564431458,2.2472205054244,-99999.0,'1111122,1111122,1199999999' 
COMPS,ioos:station:USF.COMPS:C12:1,2013-05-06T19:00:00Z,27.4980,-83.7220,4.0,170.53767779197,1.8248287590895,-99999.0,'1111122,1111122,1199999999' 
COMPS,ioos:station:USF.COMPS:C12:1,2013-05-06T20:00:00Z,27.4980,-83.7220,4.0,261.63411387597,3.4365680554879,-99999.0,'1111122,1111122,1199999999' 
COMPS,ioos:station:USF.COMPS:C12:1,2013-05-06T21:00:00Z,27.4980,-83.7220,4.0,255.46554491946,5.5785302723925,-99999.0,'1111122,1111122,1199999999' 
COMPS,ioos:station:USF.COMPS:C12:1,2013-05-06T22:00:00Z,27.4980,-83.7220,4.0,94.085616779975,5.6142675390473,-99999.0,'1111122,1111122,1199999999' 
COMPS,ioos:station:USF.COMPS:C12:1,2013-05-06T23:00:00Z,27.4980,-83.7220,4.0,123.07067782276,5.131276644267,-99999.0,'1111122,1111122,1199999999' 
COMPS,ioos:station:USF.COMPS:C12:1,2013-05-07T00:00:00Z,27.4980,-83.7220,4.0,147.05078488341,6.4350602172785,-99999.0,'1111122,1111122,1199999999' 
COMPS,ioos:station:USF.COMPS:C12:1,2013-05-07T01:00:00Z,27.4980,-83.7220,4.0,86.742778059333,12.319902597018,-99999.0,'1111122,1111122,1199999999' 
COMPS,ioos:station:USF.COMPS:C12:1,2013-05-07T02:00:00Z,27.4980,-83.7220,4.0,87.466441111605,11.311056537742,-99999.0,'1111122,1111122,1199999999' 
COMPS,ioos:station:USF.COMPS:C12:1,2013-05-07T03:00:00Z,27.4980,-83.7220,4.0,114.80266015342,14.541320435229,-99999.0,'1111122,1111122,1199999999' 
COMPS,ioos:station:USF.COMPS:C12:1,2013-05-07T04:00:00Z,27.4980,-83.7220,4.0,132.65586752593,12.101652779683,-99999.0,'1111122,1111122,1199999999' 
COMPS,ioos:station:USF.COMPS:C12:1,2013-05-07T05:00:00Z,27.4980,-83.7220,4.0,146.76828893202,13.867948658688,-99999.0,'1111122,1111122,1199999999' 
COMPS,ioos:station:USF.COMPS:C12:1,2013-05-07T06:00:00Z,27.4980,-83.7220,4.0,152.1929584685,16.50605949341,-99999.0,'1111122,1111122,1199999999' 
COMPS,ioos:station:USF.COMPS:C12:1,2013-05-07T07:00:00Z,27.4980,-83.7220,4.0,152.15242174021,11.988327656517,-99999.0,'1111122,1111122,1199999999' 
COMPS,ioos:station:USF.COMPS:C12:1,2013-05-07T09:00:00Z,27.4980,-83.7220,4.0,142.98011374517,15.280052355931,-99999.0,'1111122,1111122,1199999999' 
COMPS,ioos:station:USF.COMPS:C12:1,2013-05-07T11:00:00Z,27.4980,-83.7220,4.0,145.76253722314,8.7091905479212,-99999.0,'1111122,1111122,1199999999' 
COMPS,ioos:station:USF.COMPS:C12:1,2013-05-07T12:00:00Z,27.4980,-83.7220,4.0,82.405356631409,1.5132745950422,-99999.0,'1111122,1111122,1199999999' 
COMPS,ioos:station:USF.COMPS:C12:1,2013-05-07T13:00:00Z,27.4980,-83.7220,4.0,49.899092453788,2.4839484696748,-99999.0,'1111122,1111122,1199999999' 
COMPS,ioos:station:USF.COMPS:C12:1,2013-05-07T14:00:00Z,27.4980,-83.7220,4.0,90.909380449199,6.3007936008093,-99999.0,'1111122,1111122,1199999999' 
COMPS,ioos:station:USF.COMPS:C12:1,2013-05-07T15:00:00Z,27.4980,-83.7220,4.0,67.06789956241,2.8231188426986,-99999.0,'1111122,1111122,1199999999' 
COMPS,ioos:station:USF.COMPS:C12:1,2013-05-07T16:00:00Z,27.4980,-83.7220,4.0,103.24051991519,5.2392747589719,-99999.0,'1111122,1111122,1199999999' 
COMPS,ioos:station:USF.COMPS:C12:1,2013-05-07T17:00:00Z,27.4980,-83.7220,4.0,220.23635830927,1.7029386365926,-99999.0,'1111122,1111122,1199999999' 
COMPS,ioos:station:USF.COMPS:C12:1,2013-05-07T18:00:00Z,27.4980,-83.7220,4.0,121.28265368164,9.2439169187093,-99999.0,'1111122,1111122,1199999999' 
COMPS,ioos:station:USF.COMPS:C12:1,2013-05-07T19:00:00Z,27.4980,-83.7220,4.0,168.17851165939,4.3931765272978,-99999.0,'1111122,1111122,1199999999' 
COMPS,ioos:station:USF.COMPS:C12:1,2013-05-07T20:00:00Z,27.4980,-83.7220,4.0,167.5925814726,5.1195702944681,-99999.0,'1111122,1111122,1199999999' 
COMPS,ioos:station:USF.COMPS:C12:1,2013-05-07T21:00:00Z,27.4980,-83.7220,4.0,125.61085243867,9.1021975368589,-99999.0,'1111122,1111122,1199999999' 
COMPS,ioos:station:USF.COMPS:C12:1,2013-05-07T22:00:00Z,27.4980,-83.7220,4.0,210.96375653207,2.3323807579381,-99999.0,'1111122,1111122,1199999999' 
COMPS,ioos:station:USF.COMPS:C12:1,2013-05-07T23:00:00Z,27.4980,-83.7220,4.0,198.43494882292,3.1622776601684,-99999.0,'1111122,1111122,1199999999' 
COMPS,ioos:station:USF.COMPS:C12:1,2013-05-08T00:00:00Z,27.4980,-83.7220,4.0,101.30993247402,9.6881370758263,-99999.0,'1111122,1111122,1199999999' 
COMPS,ioos:station:USF.COMPS:C12:1,2013-05-08T01:00:00Z,27.4980,-83.7220,4.0,121.46950689768,13.60036764209,-99999.0,'1111122,1111122,1199999999' 
COMPS,ioos:station:USF.COMPS:C12:1,2013-05-08T03:00:00Z,27.4980,-83.7220,4.0,113.25259217486,13.931618714277,-99999.0,'1111122,1111122,1199999999' 
COMPS,ioos:station:USF.COMPS:C12:1,2013-05-08T06:00:00Z,27.4980,-83.7220,4.0,164.47588900325,13.077079184589,-99999.0,'1111122,1111122,1199999999' 
COMPS,ioos:station:USF.COMPS:C12:1,2013-05-08T07:00:00Z,27.4980,-83.7220,4.0,186.95295746817,16.521501142451,-99999.0,'1111122,1111122,1199999999' 
COMPS,ioos:station:USF.COMPS:C12:1,2013-05-08T08:00:00Z,27.4980,-83.7220,4.0,166.17794536427,12.97574660665,-99999.0,'1111122,1111122,1199999999' 
COMPS,ioos:station:USF.COMPS:C12:1,2013-05-08T10:00:00Z,27.4980,-83.7220,4.0,135.0,17.819090885901,-99999.0,'1111122,1111122,1199999999' 
COMPS,ioos:station:USF.COMPS:C12:1,2013-05-08T12:00:00Z,27.4980,-83.7220,4.0,107.65012421993,2.308679276123,-99999.0,'1111122,1111122,1199999999' 
COMPS,ioos:station:USF.COMPS:C12:1,2013-05-08T13:00:00Z,27.4980,-83.7220,4.0,82.724995042111,4.7381430961929,-99999.0,'1111122,1111122,1199999999' 
COMPS,ioos:station:USF.COMPS:C12:1,2013-05-08T14:00:00Z,27.4980,-83.7220,4.0,16.336042889718,6.0440052945046,-99999.0,'1111122,1111122,1199999999' 
COMPS,ioos:station:USF.COMPS:C12:1,2013-05-08T15:00:00Z,27.4980,-83.7220,4.0,51.215635899703,7.1840100222647,-99999.0,'1111122,1111122,1199999999' 
COMPS,ioos:station:USF.COMPS:C12:1,2013-05-08T16:00:00Z,27.4980,-83.7220,4.0,137.64254529406,4.6010868281309,-99999.0,'1111122,1111122,1199999999' 
COMPS,ioos:station:USF.COMPS:C12:1,2013-05-08T17:00:00Z,27.4980,-83.7220,4.0,115.11483488614,3.5341194094145,-99999.0,'1111122,1111122,1199999999' 
COMPS,ioos:station:USF.COMPS:C12:1,2013-05-08T18:00:00Z,27.4980,-83.7220,4.0,209.05460409908,9.2660671268883,-99999.0,'1111122,1111122,1199999999' 
COMPS,ioos:station:USF.COMPS:C12:1,2013-05-08T19:00:00Z,27.4980,-83.7220,4.0,213.91743053697,6.9892775020026,-99999.0,'1111122,1111122,1199999999' 
COMPS,ioos:station:USF.COMPS:C12:1,2013-05-08T20:00:00Z,27.4980,-83.7220,4.0,221.18592516571,1.0630145812735,-99999.0,'1111122,1111122,1199999999' 
COMPS,ioos:station:USF.COMPS:C12:1,2013-05-08T21:00:00Z,27.4980,-83.7220,4.0,274.5739212599,2.5079872407969,-99999.0,'1111122,1111122,1199999999' 
COMPS,ioos:station:USF.COMPS:C12:1,2013-05-08T22:00:00Z,27.4980,-83.7220,4.0,333.43494882292,6.2609903369994,-99999.0,'1111122,1111122,1199999999' 
COMPS,ioos:station:USF.COMPS:C12:1,2013-05-08T23:00:00Z,27.4980,-83.7220,4.0,282.99461679192,5.3366656256505,-99999.0,'1111122,1111122,1199999999' 
COMPS,ioos:station:USF.COMPS:C12:1,2013-05-09T00:00:00Z,27.4980,-83.7220,4.0,233.44752724791,7.2201108024739,-99999.0,'1111122,1111122,1199999999' 
COMPS,ioos:station:USF.COMPS:C12:1,2013-05-09T01:00:00Z,27.4980,-83.7220,4.0,75.79323388224,24.447699278255,-99999.0,'1111122,1111122,1199999999' 
COMPS,ioos:station:USF.COMPS:C12:1,2013-05-09T02:00:00Z,27.4980,-83.7220,4.0,85.40778798908,24.980192152984,-99999.0,'1111122,1111122,1199999999' 
COMPS,ioos:station:USF.COMPS:C12:1,2013-05-09T03:00:00Z,27.4980,-83.7220,4.0,90.0,12.4,-99999.0,'1111122,1111122,1199999999' 
COMPS,ioos:station:USF.COMPS:C12:1,2013-05-09T04:00:00Z,27.4980,-83.7220,4.0,126.15818543981,16.101242188105,-99999.0,'1111122,1111122,1199999999' 
COMPS,ioos:station:USF.COMPS:C12:1,2013-05-09T05:00:00Z,27.4980,-83.7220,4.0,145.20397372173,14.369411957349,-99999.0,'1111122,1111122,1199999999' 
COMPS,ioos:station:USF.COMPS:C12:1,2013-05-09T06:00:00Z,27.4980,-83.7220,4.0,148.50783887527,13.017296186229,-99999.0,'1111122,1111122,1199999999' 
COMPS,ioos:station:USF.COMPS:C12:1,2013-05-09T07:00:00Z,27.4980,-83.7220,4.0,140.52754015166,8.8090862182181,-99999.0,'1111122,1111122,1199999999' 
COMPS,ioos:station:USF.COMPS:C12:1,2013-05-09T08:00:00Z,27.4980,-83.7220,4.0,173.65980825409,11.772000679579,-99999.0,'1111122,1111122,1199999999' 
COMPS,ioos:station:USF.COMPS:C12:1,2013-05-09T09:00:00Z,27.4980,-83.7220,4.0,140.37099469554,8.3096329642169,-99999.0,'1111122,1111122,1199999999' 
COMPS,ioos:station:USF.COMPS:C12:1,2013-05-09T10:00:00Z,27.4980,-83.7220,4.0,200.85445803958,6.7416615162733,-99999.0,'1111122,1111122,1199999999' 
COMPS,ioos:station:USF.COMPS:C12:1,2013-05-09T11:00:00Z,27.4980,-83.7220,4.0,320.47736872883,5.1855568649857,-99999.0,'1111122,1111122,1199999999' 
COMPS,ioos:station:USF.COMPS:C12:1,2013-05-09T12:00:00Z,27.4980,-83.7220,4.0,292.55724663471,7.0384657419071,-99999.0,'1111122,1111122,1199999999' 
COMPS,ioos:station:USF.COMPS:C12:1,2013-05-09T13:00:00Z,27.4980,-83.7220,4.0,311.68905848539,8.5702975444263,-99999.0,'1111122,1111122,1199999999' 
COMPS,ioos:station:USF.COMPS:C12:1,2013-05-09T14:00:00Z,27.4980,-83.7220,4.0,34.854455566104,6.8242215673291,-99999.0,'1111122,1111122,1199999999' 
COMPS,ioos:station:USF.COMPS:C12:1,2013-05-09T15:00:00Z,27.4980,-83.7220,4.0,79.418364479056,9.2574294488265,-99999.0,'1111122,1111122,1199999999' 
COMPS,ioos:station:USF.COMPS:C12:1,2013-05-09T16:00:00Z,27.4980,-83.7220,4.0,108.03428556713,4.522167621838,-99999.0,'1111122,1111122,1199999999' 
COMPS,ioos:station:USF.COMPS:C12:1,2013-05-09T17:00:00Z,27.4980,-83.7220,4.0,309.18751761689,11.869709347747,-99999.0,'1111122,1111122,1199999999' 
COMPS,ioos:station:USF.COMPS:C12:1,2013-05-09T18:00:00Z,27.4980,-83.7220,4.0,67.693794945092,4.2154477816716,-99999.0,'1111122,1111122,1199999999' 
COMPS,ioos:station:USF.COMPS:C12:1,2013-05-09T19:00:00Z,27.4980,-83.7220,4.0,45.0,2.6870057685089,-99999.0,'1111122,1111122,1199999999' 
COMPS,ioos:station:USF.COMPS:C12:1,2013-05-09T20:00:00Z,27.4980,-83.7220,4.0,129.2894068625,4.2638011210656,-99999.0,'1111122,1111122,1199999999' 
COMPS,ioos:station:USF.COMPS:C12:1,2013-05-09T21:00:00Z,27.4980,-83.7220,4.0,204.62356478616,2.6400757564888,-99999.0,'1111122,1111122,1199999999' 
COMPS,ioos:station:USF.COMPS:C12:1,2013-05-09T22:00:00Z,27.4980,-83.7220,4.0,29.604450746005,5.060632371552,-99999.0,'1111122,1111122,1199999999' 
COMPS,ioos:station:USF.COMPS:C12:1,2013-05-09T23:00:00Z,27.4980,-83.7220,4.0,141.00900595749,2.7018512172213,-99999.0,'1111122,1111122,1199999999' 
COMPS,ioos:station:USF.COMPS:C12:1,2013-05-10T00:00:00Z,27.4980,-83.7220,4.0,93.012787504183,3.8052595180881,-99999.0,'1111122,1111122,1199999999' 
COMPS,ioos:station:USF.COMPS:C12:1,2013-05-10T01:00:00Z,27.4980,-83.7220,4.0,83.553244620895,17.812635964393,-99999.0,'1111122,1111122,1199999999' 
COMPS,ioos:station:USF.COMPS:C12:1,2013-05-10T02:00:00Z,27.4980,-83.7220,4.0,85.865328626264,16.643316977093,-99999.0,'1111122,1111122,1199999999' 
COMPS,ioos:station:USF.COMPS:C12:1,2013-05-10T03:00:00Z,27.4980,-83.7220,4.0,90.339024324451,16.900295855399,-99999.0,'1111122,1111122,1199999999' 
COMPS,ioos:station:USF.COMPS:C12:1,2013-05-10T04:00:00Z,27.4980,-83.7220,4.0,101.67878432806,18.278402556022,-99999.0,'1111122,1111122,1199999999' 
COMPS,ioos:station:USF.COMPS:C12:1,2013-05-10T05:00:00Z,27.4980,-83.7220,4.0,99.53323279003,13.283448347474,-99999.0,'1111122,1111122,1199999999' 
COMPS,ioos:station:USF.COMPS:C12:1,2013-05-10T06:00:00Z,27.4980,-83.7220,4.0,120.10652704116,13.755726080436,-99999.0,'1111122,1111122,1199999999' 
COMPS,ioos:station:USF.COMPS:C12:1,2013-05-10T07:00:00Z,27.4980,-83.7220,4.0,153.66231183391,11.269871339106,-99999.0,'1111122,1111122,1199999999' 
COMPS,ioos:station:USF.COMPS:C12:1,2013-05-10T08:00:00Z,27.4980,-83.7220,4.0,170.01503979536,14.418391033676,-99999.0,'1111122,1111122,1199999999' 
COMPS,ioos:station:USF.COMPS:C12:1,2013-05-10T09:00:00Z,27.4980,-83.7220,4.0,190.1246716554,11.377170122662,-99999.0,'1111122,1111122,1199999999' 
COMPS,ioos:station:USF.COMPS:C12:1,2013-05-10T10:00:00Z,27.4980,-83.7220,4.0,183.36646066343,3.4058772731853,-99999.0,'1111122,1111122,1199999999' 
COMPS,ioos:station:USF.COMPS:C12:1,2013-05-10T11:00:00Z,27.4980,-83.7220,4.0,86.987212495817,3.8052595180881,-99999.0,'1111122,1111122,1199999999' 
COMPS,ioos:station:USF.COMPS:C12:1,2013-05-10T12:00:00Z,27.4980,-83.7220,4.0,304.50852298767,1.9416487838948,-99999.0,'1111122,1111122,1199999999' 
COMPS,ioos:station:USF.COMPS:C12:1,2013-05-10T13:00:00Z,27.4980,-83.7220,4.0,70.096250462692,6.1684682053165,-99999.0,'1111122,1111122,1199999999' 
COMPS,ioos:station:USF.COMPS:C12:1,2013-05-10T14:00:00Z,27.4980,-83.7220,4.0,78.178511659393,4.3931765272978,-99999.0,'1111122,1111122,1199999999' 
COMPS,ioos:station:USF.COMPS:C12:1,2013-05-10T15:00:00Z,27.4980,-83.7220,4.0,111.80140948635,2.1540659228538,-99999.0,'1111122,1111122,1199999999' 